Location: Sears
(37.7625°N, 100.1060°W)
Time: 21:49:31
(UTC+00:00)

H-2A R/B - Pass Details

Date: 29 October 2020
Orbit: 528 x 653 km, 98.3° (Epoch: 30 November)

Event Time Altitude Azimuth Distance (km) Brightness Sun altitude
Rises 11:58:28 0° 22° (NNE) 2,913 6.2 -13.3°
Reaches altitude 10° 12:00:51 10° 31° (NNE) 1,982 5.5 -12.9°
Maximum altitude 12:04:49 35° 98° (E) 966 4.3 -12.1°
Drops below altitude 10° 12:08:37 10° 165° (SSE) 1,899 5.4 -11.4°
Sets 12:10:51 0° 174° (S) 2,771 6.1 -10.9°
